Vorticity
9 13 15 9 10 10 12 12 12 8 11 6 6 7 5 4 5 7 7 4 9 -3 -6 7 -2 2 13 0 1 4 5 6 11 3 28 43 16 1 9 6 8 11 22
19 22 6 2 8 9 14 14 13 11 5 13 12 7 5 5 5 8 4 6 10 -0 17 -5 10 10 7 6 8 7 9 11 11 3 7 15 29 24 19 8 4 7 7
39 31 20 12 9 12 12 15 18 13 7 6 10 9 7 5 8 3 6 9 12 0 8 6 7 10 9 9 6 7 6 6 7 9 10 8 7 6 7 6 4 6 7
7 9 13 13 14 10 12 23 25 15 10 7 7 4 6 9 5 4 9 10 6 7 5 10 11 13 9 7 6 4 6 11 11 9 8 7 8 10 10 10 9 9 9
8 6 6 10 17 13 9 15 19 10 8 8 6 7 5 6 7 10 5 7 6 10 11 10 9 9 7 5 8 10 9 8 7 6 7 7 8 6 6 7 8 6 7
-1 12 6 12 19 12 15 10 19 9 9 10 9 8 10 6 9 8 7 8 11 12 10 9 6 7 7 7 7 8 8 8 8 7 6 8 9 11 10 8 9 9 8
11 14 13 13 18 10 13 16 9 12 6 8 7 8 10 9 8 8 10 9 10 8 7 8 7 10 12 11 11 10 10 9 9 11 11 10 9 7 10 10 10 11 9
10 14 20 14 14 9 7 8 14 17 15 12 10 8 8 8 10 10 11 8 9 8 6 9 8 7 6 7 8 9 10 10 11 10 10 10 10 10 10 9 8 10 9
1 5 11 15 17 10 7 6 7 6 5 6 7 9 10 10 10 9 9 9 6 9 7 6 5 5 7 9 11 11 9 9 9 9 10 9 9 10 11 10 11 12 10
5 6 5 9 15 19 11 7 7 5 4 5 7 8 9 10 11 10 5 6 8 7 5 5 7 9 9 10 11 11 10 9 9 9 8 9 11 13 13 12 13 15 14
6 5 10 8 12 11 11 8 9 8 8 6 7 6 8 11 10 6 7 10 6 5 5 8 9 9 10 10 9 8 8 8 9 9 9 10 12 12 12 14 15 14 13
1 18 4 5 7 5 11 3 9 9 7 8 9 11 10 10 7 6 8 5 7 6 6 7 8 10 10 11 11 12 11 9 7 7 8 9 10 9 10 10 11 10 11
3 -4 15 27 6 9 7 6 4 6 9 14 14 13 11 6 5 6 5 7 6 6 7 10 12 10 8 10 13 14 11 10 9 9 9 11 10 9 9 10 10 11 10
1 3 3 13 3 8 6 11 6 4 8 12 13 10 7 5 4 4 7 7 6 6 10 10 6 9 8 11 11 10 9 9 9 8 7 8 8 7 6 7 6 7 10
-5 -3 -1 5 -7 5 6 21 8 6 3 11 9 8 6 6 4 6 9 7 9 11 8 10 8 8 8 9 11 12 13 12 10 9 8 8 9 9 9 8 10 12 11
2 -1 -1 1 5 -6 22 8 9 3 7 3 6 10 7 5 5 7 8 8 12 10 7 5 8 9 9 11 15 15 11 10 8 8 9 9 10 9 8 8 10 11 10
18 12 1 17 12 5 26 13 9 9 11 9 8 8 -1 6 6 6 8 12 10 4 5 4 4 6 12 14 12 11 10 10 10 9 8 9 9 10 9 9 8 8 8
-3 27 4 8 -6 11 -14 9 12 5 -1 6 4 10 -5 14 6 8 9 11 5 5 3 5 5 9 10 9 9 9 10 8 8 8 7 6 7 9 9 9 9 8 8
-6 66 37 23 10 50 -13 23 10 7 11 10 7 0 7 15 8 9 8 11 3 2 1 4 5 10 7 4 6 6 6 7 9 8 8 10 11 12 11 9 10 12 12
56 18 36 -8 41 52 55 22 6 -2 8 1 18 27 13 6 8 9 7 10 2 0 0 1 3 10 9 6 7 8 8 8 9 10 10 12 11 10 13 15 10 7 9
30 79 75 19 12 7 21 16 21 28 36 35 33 12 6 7 9 7 6 8 6 2 2 2 3 6 10 7 9 9 10 9 10 10 12 10 12 16 10 5 8 10 11
9 3 5 15 9 25 26 3 6 10 12 12 8 8 7 7 8 6 8 6 6 4 4 5 6 4 9 8 9 8 8 10 11 9 9 15 15 6 7 7 6 11 16
2 9 7 6 7 8 4 5 5 9 9 8 6 6 6 6 7 7 7 7 6 7 8 8 6 5 9 9 9 9 8 11 9 9 15 15 7 5 7 6 9 17 21
5 9 2 2 4 3 5 7 6 5 6 5 5 3 3 5 6 7 7 7 8 6 8 7 4 6 10 10 10 9 9 9 10 15 16 9 4 2 7 10 15 22 22
1 26 29 4 2 4 7 8 6 4 4 5 3 3 6 7 7 6 7 7 9 7 8 7 4 8 10 10 11 9 10 8 13 16 13 7 5 4 9 13 22 24 22
6 -1 22 16 4 3 7 5 5 6 5 6 10 11 11 9 5 3 7 8 8 7 8 7 6 8 11 10 11 9 9 10 15 14 10 6 7 8 12 18 22 23 17
Height
5918 5917 5917 5918 5918 5918 5918 5919 5923 5922 5925 5925 5928 5928 5925 5926 5928 5930 5931 5931 5930 5930 5929 5927 5926 5923 5922 5920 5919 5918 5917 5915 5913 5910 5908 5903 5897 5898 5908 5906 5905 5903 5903
5912 5912 5913 5915 5915 5916 5916 5916 5917 5922 5923 5925 5926 5924 5921 5925 5927 5929 5930 5930 5931 5927 5924 5925 5924 5922 5921 5919 5917 5916 5915 5914 5912 5909 5908 5906 5902 5904 5903 5901 5900 5899 5897
5906 5909 5912 5913 5914 5914 5914 5913 5913 5916 5917 5919 5920 5923 5923 5925 5926 5927 5928 5929 5928 5928 5926 5924 5922 5921 5919 5917 5915 5914 5913 5912 5909 5907 5905 5904 5903 5901 5899 5898 5896 5893 5891
5912 5911 5911 5912 5912 5913 5912 5910 5911 5914 5915 5918 5920 5922 5924 5925 5927 5927 5927 5927 5926 5925 5924 5923 5921 5919 5917 5915 5914 5912 5911 5909 5907 5905 5903 5901 5899 5897 5895 5893 5891 5888 5885
5913 5911 5911 5911 5912 5912 5911 5910 5911 5913 5913 5916 5918 5921 5922 5924 5925 5926 5925 5924 5924 5923 5922 5921 5919 5917 5915 5913 5912 5911 5908 5906 5905 5902 5900 5897 5896 5893 5891 5889 5886 5883 5880
5909 5910 5911 5910 5911 5911 5911 5911 5912 5913 5913 5915 5918 5919 5923 5922 5923 5924 5923 5922 5922 5921 5920 5919 5917 5915 5912 5911 5910 5908 5906 5903 5900 5898 5895 5893 5891 5889 5886 5884 5882 5879 5877
5909 5910 5911 5911 5911 5911 5912 5911 5912 5912 5913 5916 5918 5920 5921 5922 5922 5922 5921 5920 5920 5920 5918 5917 5915 5913 5911 5908 5906 5904 5901 5899 5897 5895 5892 5890 5887 5884 5882 5879 5876 5874 5871
5912 5913 5911 5910 5910 5911 5912 5913 5913 5911 5913 5915 5917 5918 5920 5920 5920 5919 5918 5918 5917 5916 5914 5912 5910 5908 5906 5904 5901 5898 5896 5894 5892 5890 5887 5885 5882 5879 5876 5874 5871 5868 5866
5913 5912 5911 5910 5910 5911 5912 5912 5913 5911 5912 5914 5916 5918 5919 5919 5918 5917 5916 5915 5914 5912 5911 5910 5908 5906 5903 5901 5898 5895 5892 5889 5887 5885 5884 5881 5878 5875 5872 5869 5866 5863 5860
5912 5913 5912 5911 5911 5911 5911 5911 5911 5910 5913 5914 5915 5915 5916 5915 5915 5915 5913 5911 5911 5911 5911 5907 5904 5903 5899 5896 5893 5890 5888 5885 5882 5880 5877 5874 5871 5868 5865 5862 5859 5856 5853
5911 5912 5913 5912 5909 5909 5908 5907 5907 5908 5910 5912 5913 5913 5912 5912 5912 5912 5911 5909 5909 5908 5906 5904 5903 5899 5895 5893 5889 5886 5883 5881 5879 5876 5872 5869 5866 5863 5860 5857 5854 5850 5847
5908 5909 5909 5910 5910 5907 5904 5902 5903 5905 5906 5908 5909 5909 5908 5909 5909 5909 5908 5907 5905 5904 5902 5899 5896 5893 5891 5889 5886 5883 5879 5876 5873 5870 5867 5864 5861 5858 5855 5851 5848 5844 5841
5902 5904 5904 5904 5905 5906 5905 5901 5901 5902 5902 5905 5906 5905 5906 5905 5905 5905 5904 5903 5901 5900 5897 5895 5893 5890 5887 5884 5881 5879 5876 5872 5869 5867 5864 5861 5857 5854 5851 5848 5844 5840 5836
5895 5896 5898 5898 5899 5900 5902 5901 5897 5898 5898 5899 5900 5900 5902 5901 5902 5900 5900 5899 5897 5895 5893 5891 5889 5886 5883 5880 5876 5873 5870 5867 5864 5860 5856 5854 5851 5847 5844 5841 5838 5834 5832
5886 5888 5890 5892 5891 5893 5895 5897 5896 5895 5894 5895 5895 5895 5897 5897 5896 5896 5897 5896 5894 5891 5888 5886 5883 5881 5877 5873 5870 5868 5865 5862 5858 5855 5852 5849 5846 5842 5839 5835 5832 5828 5824
5878 5879 5881 5883 5882 5887 5887 5888 5890 5890 5891 5891 5890 5892 5893 5891 5891 5892 5892 5891 5889 5885 5883 5880 5878 5875 5873 5869 5867 5863 5860 5856 5852 5849 5846 5842 5838 5834 5831 5828 5824 5820 5815
5866 5868 5869 5872 5874 5878 5878 5879 5882 5882 5884 5887 5887 5886 5887 5886 5886 5887 5886 5885 5882 5880 5878 5874 5872 5869 5866 5862 5860 5856 5853 5849 5846 5841 5837 5833 5829 5826 5823 5819 5815 5810 5805
5850 5849 5848 5855 5861 5865 5869 5868 5873 5875 5877 5879 5881 5880 5881 5881 5881 5880 5878 5878 5876 5874 5871 5867 5864 5861 5859 5857 5853 5849 5845 5841 5839 5835 5832 5827 5823 5818 5814 5809 5804 5799 5794
5829 5825 5829 5833 5839 5848 5851 5859 5865 5867 5868 5870 5873 5874 5874 5874 5875 5873 5872 5872 5870 5867 5865 5863 5860 5856 5853 5851 5847 5842 5837 5833 5830 5827 5823 5819 5814 5808 5803 5798 5793 5788 5782
5804 5805 5815 5826 5832 5835 5842 5851 5854 5858 5859 5860 5861 5866 5867 5869 5869 5867 5866 5865 5862 5860 5858 5857 5854 5850 5846 5843 5841 5836 5831 5826 5822 5818 5814 5809 5804 5799 5793 5788 5782 5776 5769
5801 5801 5810 5819 5827 5831 5841 5846 5851 5849 5848 5848 5852 5858 5859 5861 5860 5858 5858 5857 5856 5853 5851 5850 5847 5843 5839 5835 5832 5827 5822 5818 5812 5808 5803 5798 5792 5786 5781 5775 5769 5761 5754
5807 5810 5820 5824 5828 5833 5835 5837 5842 5843 5845 5848 5849 5850 5852 5851 5849 5849 5849 5849 5848 5846 5843 5841 5839 5836 5832 5827 5824 5819 5813 5808 5803 5797 5791 5786 5781 5776 5770 5763 5755 5746 5738
5817 5819 5821 5824 5825 5829 5831 5831 5834 5838 5843 5843 5841 5844 5843 5842 5842 5842 5841 5840 5839 5838 5835 5833 5830 5826 5822 5818 5815 5810 5804 5799 5793 5786 5780 5774 5770 5765 5758 5749 5740 5731 5721
5813 5816 5818 5820 5822 5824 5823 5825 5829 5831 5831 5833 5834 5834 5834 5832 5833 5834 5833 5832 5831 5829 5826 5823 5820 5818 5812 5808 5804 5799 5793 5787 5782 5776 5770 5765 5759 5752 5745 5735 5725 5715 5708
5809 5808 5808 5810 5813 5815 5817 5818 5821 5820 5822 5825 5826 5825 5826 5827 5826 5825 5824 5823 5821 5819 5817 5814 5811 5807 5801 5797 5794 5788 5783 5778 5772 5766 5760 5753 5746 5739 5731 5721 5711 5703 5696
5803 5801 5801 5805 5805 5806 5809 5811 5813 5814 5816 5817 5816 5818 5818 5818 5816 5815 5814 5812 5812 5809 5806 5803 5800 5796 5791 5787 5783 5778 5773 5767 5760 5755 5750 5742 5734 5726 5717 5708 5701 5693 5687